Regional Weather Roundup
Issued by NWS

Home | Current Version | Previous Version | Graphics & Text | Print | Product List | Glossary On
Versions: 1 2 3 4 5 6 7 8 9 10 11 12 13 14 15 16 17 18 19 20 21 22 23 24 25 26 27 28 29 30 31 32 33 34 35 36 37 38 39 40 41 42 43 44 45 46 47 48 49 50
000
ASUS45 KCYS 030410
RWRWY

WYOMING REGIONAL WEATHER ROUNDUP
NATIONAL WEATHER SERVICE CHEYENNE WY
1000 PM MDT SAT MAY 02 2015

NOTE:  "FAIR" INDICATES FEW OR NO CLOUDS BELOW 12,000 FEET
WITH NO SIGNIFICANT WEATHER AND/OR OBSTRUCTIONS TO VISIBILITY.

WYZ001-030500-
YELLOWSTONE NATIONAL PARK

CITY           SKY/WX    TMP DP  RH WIND       PRES   REMARKS
LK YELLOWSTONE   N/A     41  28  60 CALM      29.98R
W YELLOWSTONE  NOT AVBL

$$
WYZ002>013-054>058-071-098>099-030500-
NORTHERN WYOMING

CITY           SKY/WX    TMP DP  RH WIND       PRES   REMARKS
JACKSON        FAIR      52  32  46 SW6       29.92R
CODY           CLOUDY    61  28  29 NW10      29.86R
GREYBULL       FAIR      70  22  16 N15G22    29.76R
WORLAND        FAIR      66  27  23 VRB3      29.77R
SHERIDAN       FAIR      53  39  59 NE3       29.81R
BUFFALO        FAIR      54  29  38 W12       29.86R
GILLETTE       FAIR      44  33  65 CALM      29.80R
HULETT         FAIR      54  28  37 SE3       29.81R
NEWCASTLE      FAIR      54  30  40 CALM      29.79R

$$
WYZ014>020-022>026-101>103-030500-
CENTRAL WYOMING

CITY           SKY/WX    TMP DP  RH WIND       PRES   REMARKS
BIG PINEY      FAIR      47  33  58 N3        30.01R
PINEDALE       FAIR      46  32  57 N5        30.01S
DUBOIS         FAIR      52  27  37 W21       29.92R
LANDER         FAIR      62  27  26 W13G18    29.87R
RIVERTON       FAIR      62  26  25 W15       29.87R
CASPER         FAIR      58  35  42 SW10      29.86R
DOUGLAS        FAIR      55  42  61 S5        29.87R

$$
WYZ021-027>030-104>119-030500-
SOUTHERN WYOMING

CITY           SKY/WX    TMP DP  RH WIND       PRES   REMARKS
EVANSTON       FAIR      52  32  46 N6        30.02R
KEMMERER       FAIR      46  32  57 NW10      30.03R
FORT BRIDGER   CLEAR     52  32  46 N6        30.06R
ROCK SPRINGS   MOCLDY    49  40  71 S16G25    30.04F
DIXON          FAIR      49  39  69 SE6       30.06S
RAWLINS        FAIR      54  33  45 W15       29.97F
SARATOGA       FAIR      52  34  50 W14G22    30.04R
LARAMIE        FAIR      49  36  61 S13       30.01R
CHEYENNE       MOCLDY    56  37  49 W20       29.95F
TORRINGTON     FAIR      62  40  44 SW7       29.82R
PINE BLUFFS    FAIR      52  45  76 S7        29.93R

$$



USA.gov is the U.S. government's official web portal to all federal, state and local government web resources and services.